Stations météo

Publicité
Abbeville, France (7005): Température de l'air & dewpoint: 18.01.2019 11:00:00 - 24.01.2019 11:00:00 (CET)Abbeville, France (7005): Température de l'air 5cm: 18.01.2019 11:00:00 - 24.01.2019 11:00:00 (CET)Abbeville, France (7005): Température de l'air -20cm & Température de l'air -100cm: 18.01.2019 11:00:00 - 24.01.2019 11:00:00 (CET)Abbeville, France (7005): Vitesse du vent & gusts: 18.01.2019 11:00:00 - 24.01.2019 11:00:00 (CET)Abbeville, France (7005): Direction du vent: 18.01.2019 11:00:00 - 24.01.2019 11:00:00 (CET)Abbeville, France (7005): reduced air pressure: 18.01.2019 11:00:00 - 24.01.2019 11:00:00 (CET)Abbeville, France (7005): visibility: 18.01.2019 11:00:00 - 24.01.2019 11:00:00 (CET)Abbeville, France (7005): Ensoleillement: 18.01.2019 11:00:00 - 24.01.2019 11:00:00 (CET)Abbeville, France (7005): Quantités de précipitations: 18.01.2019 11:00:00 - 24.01.2019 11:00:00 (CET)
Date & Time tt [°C] td [°C] tt 5cm [°C] tt -20cm [°C] tt -100cm [°C] ff [km/h] ff [knt] fx [km/h] fx [knt] dd ppp [hPa] vv [km] sd [min] rr [mm]
24.01.2019 11:00:00 -0,9 -1,5 -2,0 2,1 7,2 6 3 9 5 SE 1012,6 2,1 0 0,0
24.01.2019 10:00:00 -1,8 -2,4 -2,8 2,1 7,2 7 4 10 5 SSE 1012,0 2,0 16 0,0
24.01.2019 09:00:00 -2,0 -2,6 -4,0 2,1 7,2 7 4 9 5 SSE 1011,7 2,1 0 0,0
24.01.2019 08:00:00 -1,8 -2,4 -3,5 2,2 7,3 5 3 6 4 S 1011,1 2,2 0 0,0
24.01.2019 07:00:00 -1,8 -2,4 -4,3 2,2 7,3 5 3 6 4 SSW 1010,8 2,0 0 0,0
24.01.2019 06:00:00 -2,2 -2,8 -3,7 2,2 7,3 5 3 10 6 S 1010,2 2,1 0 0,0
24.01.2019 05:00:00 -2,1 -2,7 -2,5 2,2 7,3 2 1 6 3 SSE 1010,2 1,6 0 0,0
24.01.2019 04:00:00 -1,5 -1,9 -3,5 2,3 7,3 2 1 9 5 W 1010,0 2,5 0 0,0
24.01.2019 03:00:00 -2,4 -3,0 -4,8 2,3 7,3 5 3 8 4 SSW 1009,7 1,5 0 0,0
24.01.2019 02:00:00 -2,6 -3,2 -5,6 2,3 7,3 2 1 8 4 S 1009,4 0,4 0 0,0
24.01.2019 01:00:00 -1,7 -2,3 -5,1 2,3 7,3 0 0 5 3 N 1008,7 0,5 0 0,0
24.01.2019 00:00:00 -1,2 -1,8 -3,3 2,3 7,3 0 0 6 3 N 1008,1 2,1 0 0,0
23.01.2019 23:00:00 -1,5 -2,1 -5,1 2,3 7,3 5 3 6 3 NNW 1007,4 1,5 0 0,0
23.01.2019 22:00:00 -1,9 -2,5 -5,4 2,4 7,3 3 1 7 4 NNW 1006,9 0,6 0 0,0
23.01.2019 21:00:00 -2,3 -3,1 -5,2 2,4 7,4 6 3 10 5 WNW 1006,4 1,9 0 0,0
23.01.2019 20:00:00 -1,8 -2,6 -4,6 2,4 7,4 3 2 9 5 NW 1005,7 2,6 0 0,0
23.01.2019 19:00:00 -1,3 -2,6 -3,8 2,4 7,4 4 2 10 5 NW 1005,1 4,4 0 0,0
23.01.2019 18:00:00 -0,3 -1,9 -1,3 2,4 7,4 8 5 22 12 NNE 1004,0 7 2 0,0
23.01.2019 17:00:00 0,7 -1,2 0,3 2,3 7,4 11 6 20 11 NNE 1002,9 9 30 0,0
23.01.2019 16:00:00 1,4 -0,5 2,1 2,3 7,4 14 8 27 15 N 1001,6 11 18 0,0
23.01.2019 15:00:00 1,2 -0,6 2,0 2,3 7,4 21 12 34 18 N 1000,6 11 22 0,0
23.01.2019 14:00:00 1,0 -0,8 2,1 2,3 7,4 24 13 34 18 N 1000,1 10 3 0,0
23.01.2019 13:00:00 0,9 -0,6 1,5 2,3 7,4 22 12 32 18 N 999,5 11 0 0,0
23.01.2019 12:00:00 0,5 -0,5 0,8 2,3 7,4 18 10 29 15 N 998,7 11 0 0,0
23.01.2019 11:00:00 0,3 -0,3 0,2 2,3 7,4 15 8 24 13 N 997,6 10 0 0,0
23.01.2019 10:00:00 0,4 0,0 0,0 2,3 7,4 17 9 26 14 NNW 996,5 1,6 0 0,2
23.01.2019 09:00:00 0,6 0,2 0,0 2,3 7,4 16 9 25 13 NNW 995,6 5 0 0,0
23.01.2019 08:00:00 0,5 0,2 0,0 2,3 7,5 14 8 22 12 NNW 995,0 4,8 0 0,0
23.01.2019 07:00:00 0,4 0,0 0,0 2,3 7,5 16 8 22 12 NW 994,5 9 0 0,2
23.01.2019 06:00:00 0,3 -0,1 0,0 2,3 7,5 13 7 21 11 WNW 994,0 2,6 0 1,4
23.01.2019 05:00:00 0,4 -0,2 0,0 2,3 7,5 16 9 24 13 WNW 994,1 1,8 0 1,4
23.01.2019 04:00:00 0,7 -0,3 0,0 2,3 7,5 18 10 35 19 WNW 994,4 2,1 0 0,2
23.01.2019 03:00:00 1,1 0,5 0,5 2,3 7,5 3 2 8 4 SSW 994,8 8 0 0,0
23.01.2019 02:00:00 1,0 0,3 0,5 2,3 7,5 5 3 16 9 S 995,1 4,6 0 0,0
23.01.2019 01:00:00 1,3 0,7 0,6 2,3 7,5 9 5 29 15 WSW 995,7 7 0 0,2
23.01.2019 00:00:00 1,1 0,5 0,0 2,3 7,5 8 4 18 10 S 996,3 11 0 0,0
22.01.2019 23:00:00 0,6 0,0 0,0 2,3 7,5 9 5 17 9 S 996,9 8 0 0,4
22.01.2019 22:00:00 0,4 -0,5 0,0 2,3 7,5 12 7 26 14 SSE 997,5 0,9 0 2,2
22.01.2019 21:00:00 1,7 0,8 1,2 2,3 7,5 11 6 24 13 SSE 998,6 4,9 0 0,0
22.01.2019 20:00:00 1,6 0,6 0,9 2,3 7,6 13 7 21 12 SSE 999,6 6 0 0,0
22.01.2019 19:00:00 1,4 0,4 0,7 2,3 7,6 11 6 22 12 SSE 1000,3 7 0 0,0
22.01.2019 18:00:00 1,6 0,1 0,9 2,3 7,6 11 6 20 11 SSE 1000,8 6 0 0,0
22.01.2019 17:00:00 2,5 0,4 1,8 2,3 7,6 9 5 18 10 S 1001,5 8 0 0,0
22.01.2019 16:00:00 4,2 1,1 5,7 2,2 7,6 10 5 17 9 S 1002,0 9 18 0,0
22.01.2019 15:00:00 5,2 1,5 4,7 2,2 7,6 7 4 17 9 SSW 1002,5 10 49 0,0
22.01.2019 14:00:00 3,8 1,7 4,0 2,2 7,6 8 4 17 9 SSW 1003,4 7 9 0,0
22.01.2019 13:00:00 2,8 1,5 2,9 2,2 7,6 9 5 17 9 S 1004,3 6 4 0,0
22.01.2019 12:00:00 2,0 1,0 2,0 2,2 7,6 9 5 25 13 SSW 1005,0 4,9 0 0,0
22.01.2019 11:00:00 1,6 0,7 0,9 2,2 7,6 9 5 21 11 S 1005,1 4,9 0 0,0
22.01.2019 10:00:00 1,0 0,3 0,0 2,2 7,6 11 6 26 14 S 1005,4 3,8 0 0,0
22.01.2019 09:00:00 0,5 -0,2 0,0 2,3 7,6 11 6 26 14 S 1006,2 1,5 0 0,6
22.01.2019 08:00:00 0,6 -0,4 0,0 2,3 7,6 14 7 31 17 S 1006,5 1,5 0 0,4
22.01.2019 07:00:00 0,4 -0,9 -0,1 2,3 7,6 16 9 35 19 SSE 1007,2 2,6 0 0,4
22.01.2019 06:00:00 0,7 -1,9 0,3 2,3 7,6 17 9 36 19 SSE 1008,2 6 0 0,0
22.01.2019 05:00:00 0,5 -2,1 -0,1 2,3 7,7 15 8 29 16 SSE 1009,2 7 0 0,0
22.01.2019 04:00:00 0,2 -2,8 -0,4 2,4 7,7 14 7 26 14 S 1010,7 8 0 0,0
22.01.2019 03:00:00 0,2 -3,5 -1,5 2,4 7,7 13 7 22 12 S 1012,4 10 0 0,0
22.01.2019 02:00:00 -1,1 -3,5 -1,9 2,5 7,7 12 7 20 11 SSE 1013,8 6 0 0,0
22.01.2019 01:00:00 -1,2 -3,9 -2,0 2,5 7,7 13 7 18 10 SSE 1015,0 6 0 0,0
22.01.2019 00:00:00 -1,3 -4,3 -2,2 2,5 7,7 11 6 19 10 SSE 1016,2 8 0 0,0
21.01.2019 23:00:00 -1,5 -4,3 -2,6 2,5 7,7 10 5 15 8 SSE 1017,4 9 0 0,0
21.01.2019 22:00:00 -1,5 -4,8 -2,7 2,6 7,7 8 4 16 8 S 1018,5 10 0 0,0
21.01.2019 21:00:00 -0,9 -4,1 -2,0 2,6 7,7 9 5 15 8 S 1019,2 10 0 0,0
21.01.2019 20:00:00 -0,8 -4,2 -2,2 2,6 7,7 6 4 10 5 S 1020,3 10 0 0,0
21.01.2019 19:00:00 -0,2 -4,1 -1,4 2,6 7,7 9 5 13 7 SSE 1020,7 10 0 0,0
21.01.2019 18:00:00 0,1 -4,4 -1,4 2,6 7,7 7 4 12 6 SSE 1021,1 13 0 0,0
21.01.2019 17:00:00 1,6 -4,3 0,6 2,6 7,7 7 4 10 6 SSE 1021,5 17 0 0,0
21.01.2019 16:00:00 3,5 -5,2 5,5 2,6 7,8 4 2 9 5 SSE 1021,8 19 14 0,0
21.01.2019 15:00:00 3,8 -4,2 6,0 2,6 7,7 4 2 10 6 S 1022,7 15 60 0,0
21.01.2019 14:00:00 3,7 -3,1 4,5 2,6 7,8 4 2 9 5 SSW 1023,5 13 60 0,0
21.01.2019 13:00:00 2,4 -2,9 3,4 2,6 7,8 3 2 9 5 S 1024,3 9 60 0,0
21.01.2019 12:00:00 0,4 -3,2 0,5 2,7 7,8 5 3 9 5 SSE 1024,8 8 60 0,0
21.01.2019 11:00:00 -1,3 -3,3 -1,9 2,8 7,8 6 3 9 5 SE 1025,1 8 60 0,0
21.01.2019 10:00:00 -2,7 -3,8 -6,1 2,8 7,8 2 1 8 4 SSE 1025,2 7 42 0,0
21.01.2019 09:00:00 -4,3 -5,5 -6,4 2,9 7,8 4 2 9 5 N 1025,0 6 0 0,0
21.01.2019 08:00:00 -3,6 -5,0 -6,6 3,0 7,8 3 1 13 7 ENE 1024,4 8 0 0,0
21.01.2019 07:00:00 -3,6 -5,2 -6,1 3,0 7,8 4 2 10 6 ENE 1024,1 7 0 0,0
21.01.2019 06:00:00 -3,1 -4,7 -5,8 3,1 7,8 7 4 10 5 ENE 1024,0 9 0 0,0
21.01.2019 05:00:00 -3,2 -4,3 -6,9 3,2 7,8 4 2 6 3 NNE 1024,0 5 0 0,0
21.01.2019 04:00:00 -3,4 -4,8 -6,2 3,3 7,8 3 2 8 4 N 1023,8 4,6 0 0,0
21.01.2019 03:00:00 -2,6 -3,7 -4,5 3,4 7,8 8 4 11 6 N 1023,8 6 0 0,0
21.01.2019 02:00:00 -3,0 -4,3 -4,7 3,5 7,9 5 3 10 5 NNW 1023,5 3,6 0 0,0
21.01.2019 01:00:00 -2,5 -3,6 -5,8 3,6 7,9 6 4 10 5 NNW 1023,2 3,8 0 0,0
21.01.2019 00:00:00 -2,3 -4,0 -5,5 3,7 7,8 0 0 7 4 N 1022,6 7 0 0,0
20.01.2019 23:00:00 -1,8 -3,4 -4,6 3,8 7,9 4 2 8 4 NNE 1022,2 7 0 0,0
20.01.2019 22:00:00 -1,6 -3,3 -4,1 3,9 7,8 4 2 6 3 E 1021,7 9 0 0,0
20.01.2019 21:00:00 -0,6 -2,5 -2,2 4,1 7,9 6 4 9 5 N 1021,2 10 0 0,0
20.01.2019 20:00:00 -0,1 -2,6 -1,7 4,2 7,9 8 5 14 8 N 1020,8 12 0 0,0
20.01.2019 19:00:00 0,2 -2,2 -1,9 4,3 7,9 5 3 9 5 N 1019,9 10 0 0,0
20.01.2019 18:00:00 1,1 -1,5 -0,8 4,3 7,9 6 3 10 5 NNE 1019,0 12 0 0,0
20.01.2019 17:00:00 2,5 -0,4 1,5 4,1 7,9 8 4 16 9 N 1018,1 12 0 0,0
20.01.2019 16:00:00 3,4 0,4 4,5 4,0 7,9 10 5 14 8 NNE 1017,4 10 12 0,0
20.01.2019 15:00:00 4,0 0,3 5,9 3,8 7,9 6 4 13 7 NNE 1016,9 15 58 0,0
20.01.2019 14:00:00 3,8 0,3 6,8 3,6 7,9 7 4 15 8 NNE 1016,8 14 60 0,0
20.01.2019 13:00:00 2,9 -0,2 3,6 3,5 7,9 8 4 14 8 NE 1016,6 12 58 0,0
20.01.2019 12:00:00 1,9 -0,4 2,1 3,5 7,9 8 4 12 6 ENE 1016,4 10 2 0,0
20.01.2019 11:00:00 1,4 -0,2 1,3 3,5 7,9 8 4 11 6 ENE 1015,8 8 9 0,0
20.01.2019 10:00:00 1,2 -0,1 0,9 3,5 8,0 8 4 17 9 ENE 1015,0 5 0 0,0
20.01.2019 09:00:00 0,9 -0,1 0,8 3,5 8,0 10 5 16 9 ENE 1014,1 4,6 0 0,0
20.01.2019 08:00:00 1,0 0,1 0,9 3,5 8,0 10 5 18 10 ENE 1013,1 3,0 0 0,0
20.01.2019 07:00:00 1,2 0,3 0,9 3,5 8,0 11 6 16 8 NE 1012,5 5 0 0,0
20.01.2019 06:00:00 1,1 0,4 0,9 3,5 8,0 10 5 15 8 ENE 1011,9 3,7 0 0,0
20.01.2019 05:00:00 1,1 0,2 0,8 3,5 8,0 7 4 17 9 E 1011,7 4,2 0 0,0
20.01.2019 04:00:00 1,0 0,3 0,8 3,5 8,0 11 6 19 11 E 1011,5 3,5 0 0,0
20.01.2019 03:00:00 1,2 0,2 1,0 3,4 8,0 13 7 19 11 E 1011,3 4,7 0 0,0
20.01.2019 02:00:00 1,3 0,1 1,0 3,4 8,0 9 5 14 8 E 1011,0 6 0 0,0
20.01.2019 01:00:00 1,2 -0,1 1,0 3,4 8,0 9 5 17 9 E 1011,0 6 0 0,0
20.01.2019 00:00:00 1,2 -0,4 1,0 3,4 8,0 10 6 20 11 E 1010,7 8 0 0,0
19.01.2019 23:00:00 1,2 -0,7 1,0 3,4 8,0 11 6 20 11 E 1010,5 11 0 0,0
19.01.2019 22:00:00 1,4 -1,2 1,2 3,4 8,0 12 6 21 12 E 1010,2 15 0 0,0
19.01.2019 21:00:00 1,6 -1,3 1,2 3,4 8,0 12 6 23 13 ESE 1010,0 19 0 0,0
19.01.2019 20:00:00 1,5 -1,6 1,2 3,4 8,0 13 7 23 12 ESE 1009,8 19 0 0,0
19.01.2019 19:00:00 1,9 -1,7 1,6 3,4 8,0 13 7 25 13 ESE 1009,9 20 0 0,0
19.01.2019 18:00:00 1,9 -1,9 1,6 3,3 8,0 14 7 23 13 ESE 1009,8 19 0 0,0
19.01.2019 17:00:00 2,2 -1,8 1,9 3,3 8,0 15 8 26 14 ESE 1009,5 20 0 0,0
19.01.2019 16:00:00 2,4 -1,6 2,8 3,2 8,0 14 8 30 16 ESE 1009,5 20 13 0,0
19.01.2019 15:00:00 3,4 -1,0 2,9 3,2 8,1 13 7 30 16 ESE 1009,8 19 38 0,0
19.01.2019 14:00:00 2,7 -1,5 2,2 3,2 8,1 16 9 29 15 ESE 1010,4 20 43 0,0
19.01.2019 13:00:00 1,7 -1,9 2,3 3,2 8,1 17 9 31 17 ESE 1011,4 20 60 0,0
19.01.2019 12:00:00 0,8 -2,4 1,2 3,3 8,1 20 11 32 17 SE 1012,3 18 60 0,0
19.01.2019 11:00:00 0,0 -2,7 0,1 3,3 8,1 16 9 29 16 SE 1012,5 19 60 0,0
19.01.2019 10:00:00 -0,9 -2,9 -2,0 3,4 8,1 16 9 31 17 ESE 1012,5 18 35 0,0
19.01.2019 09:00:00 -1,6 -3,3 -2,1 3,5 8,1 14 8 32 17 SE 1012,6 19 0 0,0
19.01.2019 08:00:00 -1,6 -3,3 -2,1 3,5 8,1 18 10 31 17 ESE 1012,5 20 0 0,0
19.01.2019 07:00:00 -1,6 -3,3 -2,1 3,6 8,1 12 7 31 17 ESE 1012,9 20 0 0,0
19.01.2019 06:00:00 -1,4 -3,3 -2,0 3,7 8,1 14 8 26 14 SE 1013,4 20 0 0,0
19.01.2019 05:00:00 -1,2 -3,2 -1,8 3,8 8,1 14 8 27 14 SE 1014,1 20 0 0,0
19.01.2019 04:00:00 -1,0 -2,7 -1,6 3,9 8,1 14 7 27 15 SE 1014,6 18 0 0,0
19.01.2019 03:00:00 -1,0 -2,4 -1,7 4,0 8,1 15 8 26 14 SE 1015,1 14 0 0,0
19.01.2019 02:00:00 -0,9 -2,2 -1,5 4,0 8,1 18 10 30 16 SE 1015,5 12 0 0,0
19.01.2019 01:00:00 -0,7 -2,0 -1,3 4,1 8,1 16 9 29 15 SE 1015,8 10 0 0,0
19.01.2019 00:00:00 -0,1 -1,7 -0,8 4,2 8,1 17 9 32 17 SE 1016,5 11 0 0,0
18.01.2019 23:00:00 0,3 -1,5 -0,3 4,3 8,1 18 10 29 16 SE 1016,5 13 0 0,0
18.01.2019 22:00:00 0,7 -1,2 0,1 4,5 8,1 19 10 31 17 SE 1016,6 15 0 0,0
18.01.2019 21:00:00 1,1 -1,3 0,4 4,5 8,1 19 10 28 15 SE 1016,7 17 0 0,0
18.01.2019 20:00:00 1,5 -1,2 0,7 4,6 8,1 14 8 23 12 SE 1017,0 19 0 0,0
18.01.2019 19:00:00 1,4 -1,2 0,7 4,7 8,1 10 5 19 10 ESE 1017,5 19 0 0,0
18.01.2019 18:00:00 2,3 -1,3 1,6 4,6 8,1 10 6 21 11 ESE 1017,7 20 0 0,0
18.01.2019 17:00:00 3,6 -1,0 2,8 4,5 8,1 12 7 26 14 SE 1017,8 20 0 0,0
18.01.2019 16:00:00 4,8 -1,2 6,0 4,3 8,1 18 10 24 13 SE 1017,8 20 4 0,0
18.01.2019 15:00:00 5,3 -1,0 6,8 4,1 8,1 16 9 26 14 SSE 1018,3 20 60 0,0
18.01.2019 14:00:00 5,2 0,2 6,8 4,0 8,1 10 5 19 10 SSE 1018,7 19 60 0,0
18.01.2019 13:00:00 4,5 -0,3 5,7 4,0 8,1 8 4 13 7 SSE 1019,5 20 60 0,0
18.01.2019 12:00:00 2,8 -0,1 1,5 4,0 8,1 10 5 13 7 SE 1020,0 19 38 0,2
18.01.2019 11:00:00 0,7 -0,9 -0,4 4,1 8,1 9 5 12 6 SE 1020,3 19 15 0,0

tt = Température de l'air
td = dewpoint
tt 5cm = Température de l'air 5cm
tt -20cm = Température de l'air -20cm
tt -100cm = Température de l'air -100cm
ff = Vitesse du vent
fx = gusts
dd = Direction du vent
ppp = reduced air pressure
vv = visibility
sd = Ensoleillement
rr = Quantités de précipitations

stations d'obs. à proximité